Основна » Време у САДу » Њуjорк » Њуjорк » Meteograms hourly weather

Њуjорк, метеограме

Њуjорк: време по сату
Недеља, 05 Јула
Време Падавине Температура Осећа се Притисак Влажност Ветар
18:00 0 мм +31° +31.5° 759.000 мм.ж.с 41% 3 м/с, Ј
19:00 0 мм +30° +30.7° 759.000 мм.ж.с 45% 2 м/с, Ј
20:00 0 мм +29.3° +30.2° 759.000 мм.ж.с 48% 2 м/с, Ј
21:00 0 мм +28.7° +29.7° 760.000 мм.ж.с 51% 2 м/с, ЈЗ
22:00 0 мм +28° +29.2° 760.000 мм.ж.с 54% 1 м/с, З
23:00 0 мм +27.6° +28.7° 760.000 мм.ж.с 54% 1 м/с, СЗ
Понедељак, 06 Јула
Време Падавине Температура Осећа се Притисак Влажност Ветар
00:00 0 мм +27.2° +28.3° 760.000 мм.ж.с 54% 1 м/с, СЗ
01:00 0 мм +26.9° +27.9° 760.000 мм.ж.с 55% 1 м/с, СЗ
02:00 0 мм +26.5° +27.4° 760.000 мм.ж.с 54% 2 м/с, СЗ
03:00 0 мм +26.1° +26.9° 760.000 мм.ж.с 53% 2 м/с, СЗ
04:00 0 мм +25.8° +26.5° 760.000 мм.ж.с 53% 2 м/с, З
05:00 0 мм +26.3° +26.8° 760.000 мм.ж.с 50% 2 м/с, З
06:00 0 мм +26.8° +27.3° 761.000 мм.ж.с 48% 2 м/с, СЗ
07:00 0 мм +27.3° +27.7° 761.000 мм.ж.с 46% 2 м/с, СЗ
08:00 0.01 мм +29° +29.3° 761.000 мм.ж.с 42% 2 м/с, СЗ
09:00 0.01 мм +30.7° +30.9° 761.000 мм.ж.с 38% 2 м/с, З
10:00 0.01 мм +32.5° +32.4° 761.000 мм.ж.с 34% 2 м/с, З
11:00 0.01 мм +33.4° +33.3° 761.000 мм.ж.с 32% 2 м/с, З
12:00 0.01 мм +34.4° +34.1° 761.000 мм.ж.с 30% 3 м/с, ЈЗ
13:00 0.01 мм +35.4° +35° 761.000 мм.ж.с 28% 3 м/с, ЈЗ
14:00 0.06 мм +34.3° +34.3° 761.000 мм.ж.с 32% 3 м/с, Ј
15:00 0.06 мм +33.2° +33.5° 761.000 мм.ж.с 36% 4 м/с, Ј
16:00 0.06 мм +32.1° +32.6° 760.000 мм.ж.с 39% 4 м/с, Ј
17:00 0.67 мм +30.9° +31.6° 761.000 мм.ж.с 43% 4 м/с, Ј
18:00 0.67 мм +29.6° +30.5° 761.000 мм.ж.с 47% 3 м/с, Ј
19:00 0.67 мм +28.4° +29.3° 761.000 мм.ж.с 50% 3 м/с, ЈЗ
20:00 0.99 мм +27.9° +29° 761.000 мм.ж.с 54% 3 м/с, Ј
21:00 0.99 мм +27.3° +28.7° 762.000 мм.ж.с 58% 3 м/с, Ј
22:00 0.99 мм +26.8° +28.4° 762.000 мм.ж.с 62% 3 м/с, Ј
23:00 0.48 мм +26.5° +28.1° 762.000 мм.ж.с 63% 2 м/с, ЈЗ
Уторак, 07 Јула
Време Падавине Температура Осећа се Притисак Влажност Ветар
00:00 0.48 мм +26.2° +27.9° 762.000 мм.ж.с 65% 2 м/с, ЈЗ
01:00 0.48 мм +25.9° +27.7° 762.000 мм.ж.с 67% 2 м/с, ЈЗ
02:00 0.14 мм +25.6° +27.5° 762.000 мм.ж.с 68% 2 м/с, ЈЗ
03:00 0.14 мм +25.3° +27.2° 762.000 мм.ж.с 69% 2 м/с, ЈЗ
04:00 0.14 мм +25° +26.9° 762.000 мм.ж.с 70% 2 м/с, ЈЗ
05:00 0.02 мм +25.5° +27.3° 762.000 мм.ж.с 68% 2 м/с, ЈЗ
06:00 0.02 мм +26° +27.8° 762.000 мм.ж.с 66% 1 м/с, ЈЗ
07:00 0.02 мм +26.5° +28.2° 762.000 мм.ж.с 63% 1 м/с, ЈЗ
08:00 0.06 мм +27.8° +29.4° 762.000 мм.ж.с 59% 1 м/с, Ј
09:00 0.06 мм +29.2° +30.7° 762.000 мм.ж.с 55% 2 м/с, Ј
10:00 0.06 мм +30.5° +31.8° 762.000 мм.ж.с 50% 2 м/с, Ј
11:00 0.18 мм +31.1° +32.4° 761.000 мм.ж.с 49% 3 м/с, Ј
12:00 0.18 мм +31.7° +33.1° 761.000 мм.ж.с 48% 3 м/с, Ј
13:00 0.18 мм +32.3° +33.6° 761.000 мм.ж.с 46% 4 м/с, Ј
14:00 0.05 мм +32.1° +33.4° 761.000 мм.ж.с 47% 5 м/с, Ј
15:00 0.05 мм +31.9° +33.4° 760.000 мм.ж.с 49% 5 м/с, Ј
16:00 0.05 мм +31.7° +33.3° 760.000 мм.ж.с 50% 6 м/с, Ј
17:00 0.33 мм +30.7° +32.4° 760.000 мм.ж.с 54% 6 м/с, Ј

Такође

Meteograms hourly weather Мапе времена Преглед времена
Meteograms hourly weather Мапе времена Преглед времена
 
Време у Србији:
О проjекту
© meteoprog.rs 2003-2020.
Meteoprog.ua - погода в Украине 0.0386
sitemap